IZ1GCT Weather Reports


Display with metric or nautical units.
time (UTC)temp
F
wind
direction
speed
MPH
gust
MPH
rain 1hr
in
rain 24hr
in
rain mn
in
humidity
%
barometer
mb
20260510041045 55 135 1.0 1.0 0.04 0.09 0.09 83 1017.3
20260510040544 55 135 2.0 3.0 0.05 0.09 0.09 83 1017.3
20260510035535 55 145 1.0 2.0 0.04 0.08 0.08 82 1017.3
20260510035034 55 135 3.0 7.0 0.04 0.08 0.08 83 1017.2
20260510034536 55 135 2.0 5.0 0.01 0.06 0.06 83 1017.1
20260510034036 55 135 1.0 3.0 0.01 0.06 0.06 84 1017.2
20260510033535 55 135 3.0 6.0 0.02 0.06 0.06 84 1017.1
20260510033034 55 135 3.0 5.0 0.04 0.06 0.06 86 1017.1
20260510032536 55 135 5.0 6.0 0.05 0.06 0.06 87 1017.1
20260510032034 55 137 2.0 7.0 0.05 0.06 0.06 88 1017.2
20260510031536 56 135 3.0 8.0 0.05 0.06 0.06 88 1017.2
20260510031035 56 135 6.0 8.0 0.05 0.06 0.06 88 1017.3
20260510030535 56 135 5.0 10.0 0.04 0.05 0.05 87 1017.3
20260510030034 55 112 3.0 5.0 0.04 0.05 0.05 87 1017.3
20260510025536 55 135 1.0 2.0 0.04 0.05 0.05 87 1017.3
20260510025035 55 135 2.0 3.0 0.04 0.05 0.05 86 1017.4
20260510024534 56 135 1.0 2.0 0.04 0.05 0.05 85 1017.6
20260510024036 56 158 2.0 3.0 0.04 0.05 0.05 84 1017.6
20260510023535 56 135 1.0 3.0 0.02 0.04 0.04 83 1017.6
20260510023035 57 112 1.0 2.0 0.01 0.02 0.02 82 1017.6
20260510022535 56 135 9.0 13.0 0.00 0.01 0.01 85 1017.6
20260510022035 56 125 5.0 6.0 0.00 0.01 0.01 87 1017.2
20260510021535 56 135 0.0 2.0 0.00 0.01 0.01 87 1017.0
20260510021034 56 145 3.0 5.0 0.00 0.01 0.01 87 1016.9
20260510020535 56 135 2.0 3.0 0.00 0.01 0.01 86 1016.8
20260510020035 56 135 1.0 2.0 0.00 0.01 0.01 86 1016.8
20260510015534 57 135 1.0 2.0 0.00 0.01 0.01 87 1016.9
20260510015035 57 135 1.0 3.0 0.00 0.01 0.01 88 1017.0
20260510014535 57 135 3.0 5.0 0.00 0.01 0.01 89 1017.0
20260510014034 56 135 2.0 3.0 0.00 0.01 0.01 90 1017.1
20260510013535 56 135 1.0 2.0 0.00 0.01 0.01 91 1017.1
20260510013035 56 135 1.0 3.0 0.00 0.01 0.01 91 1017.2
20260510012534 56 135 0.0 2.0 0.00 0.01 0.01 91 1017.2
20260510012035 56 135 0.0 0.0 0.00 0.01 0.01 91 1017.3
20260510011535 56 135 0.0 0.0 0.00 0.01 0.01 90 1017.4
20260510011034 56 153 0.0 0.0 0.00 0.01 0.01 90 1017.4
20260510010536 56 158 0.0 1.0 0.00 0.01 0.01 90 1017.6
20260510010035 56 158 1.0 2.0 0.00 0.01 0.01 88 1017.4
20260510005535 56 158 1.0 2.0 0.00 0.01 0.01 88 1017.5
20260510005034 56 158 1.0 1.0 0.01 0.01 0.01 88 1017.5
20260510004535 56 158 0.0 1.0 0.01 0.01 0.01 88 1017.5
20260510004034 56 158 0.0 0.0 0.01 0.01 0.01 88 1017.5
20260510003536 56 158 0.0 1.0 0.01 0.01 0.01 88 1017.5
20260510003035 56 158 0.0 0.0 0.01 0.01 0.01 88 1017.7
20260510002534 56 135 1.0 1.0 0.01 0.01 0.01 87 1017.6
20260510002034 56 158 1.0 3.0 0.01 0.01 0.01 87 1017.6
20260510001535 56 158 3.0 5.0 0.01 0.01 0.01 85 1017.7
20260510001034 56 158 2.0 3.0 0.01 0.01 0.01 83 1017.9
20260510000536 57 158 2.0 3.0 0.01 0.01 0.01 81 1017.8
20260510000035 57 135 0.0 0.0 0.01 0.01 0.01 80 1017.9
20260509235534 58 135 0.0 1.0 0.01 0.01 0.01 80 1018.0
20260509235035 58 135 0.0 1.0 0.00 0.00 0.00 80 1018.0
20260509234535 57 158 1.0 2.0 0.00 0.00 0.00 80 1018.2
20260509234035 57 158 3.0 5.0 0.00 0.00 0.00 78 1018.1
20260509233534 58 158 0.0 0.0 0.00 0.00 0.00 77 1018.3
20260509233036 58 158 0.0 0.0 0.00 0.00 0.00 77 1018.4
20260509232535 58 158 1.0 2.0 0.00 0.00 0.00 77 1018.4
20260509232035 58 158 1.0 2.0 0.00 0.00 0.00 76 1018.5
20260509231534 58 158 0.0 1.0 0.00 0.00 0.00 75 1018.4
20260509231036 58 157 1.0 2.0 0.00 0.00 0.00 75 1018.4
20260509230535 58 141 1.0 2.0 0.00 0.00 0.00 75 1018.3
20260509230034 58 158 1.0 2.0 0.00 0.00 0.00 75 1018.3
20260509225536 58 158 1.0 3.0 0.00 0.00 0.00 74 1018.3
20260509225035 59 135 1.0 3.0 0.00 0.00 0.00 74 1018.3
20260509224535 59 141 2.0 3.0 0.00 0.00 0.00 72 1018.3
20260509224034 59 157 0.0 2.0 0.00 0.00 0.00 71 1018.3
20260509223535 60 158 0.0 0.0 0.00 0.00 0.00 71 1018.5
20260509223035 60 158 0.0 0.0 0.00 0.00 0.00 70 1018.5
20260509222535 61 135 0.0 1.0 0.00 0.00 0.00 69 1018.6
20260509222036 61 135 1.0 2.0 0.00 0.00 0.00 69 1018.6
20260509221535 60 135 3.0 6.0 0.00 0.00 0.00 70 1018.5
20260509221034 60 135 3.0 6.0 0.00 0.00 0.00 71 1018.6
20260509220534 59 135 2.0 3.0 0.00 0.00 0.00 72 1018.5
20260509220034 59 135 1.0 1.0 0.00 0.00 0.00 72 1018.6
20260509215534 59 135 0.0 1.0 0.00 0.00 0.00 72 1018.5
20260509215035 59 135 0.0 1.0 0.00 0.00 0.00 72 1018.6
20260509214535 59 156 0.0 1.0 0.00 0.00 0.00 72 1018.6
20260509214034 59 135 0.0 0.0 0.00 0.00 0.00 72 1018.7
20260509213535 59 158 1.0 1.0 0.00 0.00 0.00 72 1018.7
20260509213035 59 135 0.0 1.0 0.00 0.00 0.00 72 1018.7
20260509212534 59 158 2.0 2.0 0.00 0.00 0.00 72 1018.6
20260509212035 59 158 1.0 2.0 0.00 0.00 0.00 72 1018.5
20260509211534 59 158 0.0 0.0 0.00 0.00 0.00 71 1018.6
20260509211036 59 148 0.0 1.0 0.00 0.00 0.00 72 1018.6
20260509210535 59 157 2.0 3.0 0.00 0.00 0.00 72 1018.6
20260509210034 59 135 1.0 2.0 0.00 0.00 0.00 71 1018.7
20260509205536 59 135 2.0 3.0 0.00 0.00 0.00 73 1018.6
20260509205035 59 141 3.0 6.0 0.00 0.00 0.00 73 1018.7
20260509204535 59 158 1.0 3.0 0.00 0.00 0.00 72 1018.6
20260509204034 59 155 0.0 1.0 0.00 0.00 0.00 71 1018.4
20260509203536 59 158 2.0 3.0 0.00 0.00 0.00 72 1018.5
20260509203035 59 158 0.0 1.0 0.00 0.00 0.00 72 1018.4
20260509202534 59 137 0.0 1.0 0.00 0.00 0.00 72 1018.3
20260509202034 59 158 1.0 2.0 0.00 0.00 0.00 72 1018.3
20260509201535 59 158 1.0 1.0 0.00 0.00 0.00 72 1018.4
20260509201035 60 135 0.0 1.0 0.00 0.00 0.00 72 1018.4
20260509200534 60 135 0.0 0.0 0.00 0.00 0.00 72 1018.4
20260509200034 60 135 0.0 0.0 0.00 0.00 0.00 72 1018.4
20260509195535 60 135 1.0 1.0 0.00 0.00 0.00 72 1018.4
20260509195035 60 145 0.0 1.0 0.00 0.00 0.00 72 1018.3
20260509194534 60 158 2.0 3.0 0.00 0.00 0.00 72 1018.2
20260509194034 60 158 0.0 1.0 0.00 0.00 0.00 71 1018.1
20260509193535 60 158 0.0 1.0 0.00 0.00 0.00 71 1018.2
20260509193035 60 158 0.0 0.0 0.00 0.00 0.00 71 1018.1
20260509192534 60 158 0.0 0.0 0.00 0.00 0.00 70 1018.0
20260509192035 60 158 2.0 3.0 0.00 0.00 0.00 70 1018.0
20260509191535 60 158 0.0 1.0 0.00 0.00 0.00 70 1017.8
20260509191035 60 145 2.0 3.0 0.00 0.00 0.00 71 1017.8
20260509190535 60 157 2.0 3.0 0.00 0.00 0.00 70 1017.7
20260509190034 61 135 0.0 0.0 0.00 0.00 0.00 70 1017.7
20260509185535 61 135 0.0 1.0 0.00 0.00 0.00 70 1017.6
20260509185035 61 135 1.0 2.0 0.00 0.00 0.00 70 1017.6
20260509184534 62 145 1.0 2.0 0.00 0.00 0.00 70 1017.6
20260509184035 62 135 0.0 0.0 0.00 0.00 0.00 68 1017.6
20260509183535 63 135 1.0 2.0 0.00 0.00 0.00 68 1017.5
20260509183034 63 135 0.0 0.0 0.00 0.00 0.00 66 1017.4
20260509182534 63 135 1.0 2.0 0.00 0.00 0.00 62 1017.5
20260509182035 64 135 0.0 0.0 0.00 0.00 0.00 60 1017.4
20260509181534 65 135 1.0 2.0 0.00 0.00 0.00 60 1017.4
20260509181034 65 158 0.0 2.0 0.00 0.00 0.00 60 1017.4
20260509180535 65 158 0.0 1.0 0.00 0.00 0.00 58 1017.4
20260509180035 65 158 1.0 1.0 0.00 0.00 0.00 57 1017.2
20260509175534 66 152 1.0 3.0 0.00 0.00 0.00 57 1017.3
20260509175035 66 146 3.0 5.0 0.00 0.00 0.00 56 1017.3
20260509174535 67 137 3.0 6.0 0.00 0.00 0.00 56 1017.3
20260509174034 67 143 5.0 6.0 0.00 0.00 0.00 54 1017.3
20260509173535 68 135 2.0 5.0 0.00 0.00 0.00 51 1017.4
20260509173035 69 135 2.0 3.0 0.00 0.00 0.00 47 1017.2
20260509172534 70 158 5.0 6.0 0.00 0.00 0.00 44 1017.2
20260509172035 72 148 2.0 5.0 0.00 0.00 0.00 43 1017.3
20260509171535 73 154 2.0 3.0 0.00 0.00 0.00 40 1017.3
20260509171034 73 147 2.0 3.0 0.00 0.00 0.00 40 1017.3
20260509170534 71 135 2.0 5.0 0.00 0.00 0.00 44 1017.5
20260509170034 70 135 1.0 2.0 0.00 0.00 0.00 45 1017.6
20260509165535 70 135 1.0 3.0 0.00 0.00 0.00 45 1017.6
20260509165034 70 158 1.0 1.0 0.00 0.00 0.00 44 1017.5
20260509164535 70 135 2.0 3.0 0.00 0.00 0.00 45 1017.6
20260509164035 70 158 2.0 3.0 0.00 0.00 0.00 46 1017.5
20260509163534 69 158 1.0 2.0 0.00 0.00 0.00 46 1017.6
20260509163034 70 135 2.0 3.0 0.00 0.00 0.00 46 1017.6
20260509162535 69 135 1.0 3.0 0.00 0.00 0.00 46 1017.6
20260509162034 69 158 3.0 7.0 0.00 0.00 0.00 46 1017.6
20260509161535 69 126 3.0 5.0 0.00 0.00 0.00 46 1017.6
20260509161034 69 135 2.0 5.0 0.00 0.00 0.00 46 1017.8
20260509160534 69 135 3.0 8.0 0.00 0.00 0.00 46 1017.7
20260509155536 69 132 3.0 6.0 0.00 0.00 0.00 47 1017.8
20260509155035 69 142 2.0 3.0 0.00 0.00 0.00 49 1017.8
20260509154537 69 119 5.0 6.0 0.00 0.00 0.00 47 1017.9
20260509154036 69 135 7.0 8.0 0.00 0.00 0.00 47 1017.8
20260509153537 69 121 7.0 8.0 0.00 0.00 0.00 47 1017.9
20260509153036 69 135 8.0 10.0 0.00 0.00 0.00 46 1018.0
20260509152535 69 132 8.0 10.0 0.00 0.00 0.00 44 1017.9
20260509152037 70 135 7.0 13.0 0.00 0.00 0.00 45 1018.0
20260509151536 70 112 9.0 13.0 0.00 0.00 0.00 44 1018.0
20260509151035 70 135 7.0 9.0 0.00 0.00 0.00 45 1018.0
20260509150537 70 129 8.0 13.0 0.00 0.00 0.00 44 1018.1
20260509150036 70 135 5.0 6.0 0.00 0.00 0.00 45 1018.1
20260509145536 70 131 5.0 6.0 0.00 0.00 0.00 45 1018.1
20260509145037 70 137 3.0 6.0 0.00 0.00 0.00 47 1018.2
20260509144536 69 123 5.0 8.0 0.00 0.00 0.00 47 1018.2
20260509144036 69 135 8.0 10.0 0.00 0.00 0.00 46 1018.3
20260509143537 69 129 8.0 10.0 0.00 0.00 0.00 46 1018.2
20260509143036 69 135 7.0 10.0 0.00 0.00 0.00 46 1018.2
20260509142536 69 114 7.0 8.0 0.00 0.00 0.00 48 1018.3
20260509142037 69 135 8.0 13.0 0.00 0.00 0.00 48 1018.1
20260509141537 70 120 7.0 9.0 0.00 0.00 0.00 47 1018.1
20260509141036 70 118 7.0 15.0 0.00 0.00 0.00 49 1018.1
20260509140537 71 145 10.0 13.0 0.00 0.00 0.00 47 1018.0
20260509140036 70 135 5.0 8.0 0.00 0.00 0.00 50 1018.1
20260509135537 69 119 9.0 15.0 0.00 0.00 0.00 48 1018.1
20260509135036 69 125 9.0 13.0 0.00 0.00 0.00 49 1018.2
20260509134537 69 149 7.0 10.0 0.00 0.00 0.00 48 1018.3
20260509134036 70 128 8.0 12.0 0.00 0.00 0.00 48 1018.3
20260509133535 69 120 9.0 13.0 0.00 0.00 0.00 49 1018.3
20260509133037 68 115 10.0 13.0 0.00 0.00 0.00 49 1018.4
20260509132536 68 135 8.0 12.0 0.00 0.00 0.00 47 1018.5
20260509132037 68 120 7.0 10.0 0.00 0.00 0.00 49 1018.6
20260509131536 68 118 8.0 13.0 0.00 0.00 0.00 49 1018.5
20260509131036 69 123 9.0 15.0 0.00 0.00 0.00 47 1018.5
20260509130537 70 135 13.0 17.0 0.00 0.00 0.00 49 1018.5
20260509130036 71 135 7.0 8.0 0.00 0.00 0.00 48 1018.5
20260509125537 70 135 10.0 16.0 0.00 0.00 0.00 49 1018.5
20260509125037 70 113 13.0 20.0 0.00 0.00 0.00 50 1018.4
20260509124536 70 129 10.0 16.0 0.00 0.00 0.00 50 1018.4
20260509124036 69 135 8.0 12.0 0.00 0.00 0.00 51 1018.5
20260509123536 68 135 7.0 14.0 0.00 0.00 0.00 51 1018.6
20260509123037 68 135 12.0 15.0 0.00 0.00 0.00 52 1018.8
20260509122536 68 135 12.0 15.0 0.00 0.00 0.00 52 1018.8
20260509122036 68 119 9.0 13.0 0.00 0.00 0.00 52 1018.8
20260509121535 68 149 12.0 16.0 0.00 0.00 0.00 51 1018.9
20260509121037 69 114 13.0 15.0 0.00 0.00 0.00 51 1018.8
20260509120536 69 132 7.0 13.0 0.00 0.00 0.00 51 1018.7
20260509120037 69 135 6.0 9.0 0.00 0.00 0.00 51 1018.7
20260509115537 69 131 8.0 12.0 0.00 0.00 0.00 51 1018.7
20260509115036 68 124 9.0 12.0 0.00 0.00 0.00 50 1018.7
20260509114535 69 117 9.0 15.0 0.00 0.00 0.00 51 1018.8
20260509114037 69 121 6.0 10.0 0.00 0.00 0.00 52 1018.8
20260509113536 68 124 8.0 12.0 0.00 0.00 0.00 51 1018.8
20260509113036 69 115 6.0 10.0 0.00 0.00 0.00 51 1018.8
20260509112537 69 135 10.0 13.0 0.00 0.00 0.00 50 1018.9
20260509112037 69 135 9.0 13.0 0.00 0.00 0.00 49 1018.9
20260509111536 71 130 12.0 15.0 0.00 0.00 0.00 46 1018.9
20260509111035 72 135 7.0 10.0 0.00 0.00 0.00 50 1019.0
20260509110537 71 116 7.0 10.0 0.00 0.00 0.00 48 1019.0
20260509110036 71 135 9.0 12.0 0.00 0.00 0.00 50 1019.0
20260509105536 70 128 9.0 13.0 0.00 0.00 0.00 51 1019.0
20260509105037 70 115 10.0 13.0 0.00 0.00 0.00 51 1019.0
20260509104536 70 147 8.0 15.0 0.00 0.00 0.00 51 1019.1
20260509104035 70 135 9.0 13.0 0.00 0.00 0.00 49 1019.1
20260509103537 70 153 6.0 8.0 0.00 0.00 0.00 48 1019.3
20260509103036 70 128 3.0 7.0 0.00 0.00 0.00 49 1019.3
20260509102536 70 117 5.0 6.0 0.00 0.00 0.00 45 1019.2
20260509102035 69 135 9.0 12.0 0.00 0.00 0.00 44 1019.4
20260509101537 70 152 6.0 9.0 0.00 0.00 0.00 42 1019.3
20260509101036 70 135 7.0 9.0 0.00 0.00 0.00 41 1019.4
20260509100535 72 158 5.0 6.0 0.00 0.00 0.00 40 1019.4
20260509100036 71 158 7.0 8.0 0.00 0.00 0.00 41 1019.4
20260509095536 71 130 7.0 8.0 0.00 0.00 0.00 41 1019.4
20260509095035 72 123 3.0 6.0 0.00 0.00 0.00 41 1019.3
20260509094536 71 121 3.0 6.0 0.00 0.00 0.00 43 1019.5
20260509094036 70 112 3.0 6.0 0.00 0.00 0.00 42 1019.5
20260509093535 70 125 6.0 8.0 0.00 0.00 0.00 44 1019.5
20260509093037 69 135 8.0 10.0 0.00 0.00 0.00 44 1019.6
20260509092537 70 135 7.0 9.0 0.00 0.00 0.00 44 1019.7
20260509092036 71 135 6.0 7.0 0.00 0.00 0.00 43 1019.7
20260509091535 71 151 2.0 3.0 0.00 0.00 0.00 46 1019.9
20260509091037 70 123 5.0 6.0 0.00 0.00 0.00 44 1019.9
20260509090536 70 138 6.0 8.0 0.00 0.00 0.00 44 1020.1
20260509090036 70 158 5.0 6.0 0.00 0.00 0.00 44 1020.0
20260509085537 70 135 3.0 3.0 0.00 0.00 0.00 43 1020.1
20260509085036 71 135 5.0 6.0 0.00 0.00 0.00 43 1020.0
20260509084535 70 153 2.0 3.0 0.00 0.00 0.00 42 1020.1
20260509084037 70 126 2.0 3.0 0.00 0.00 0.00 42 1020.0
20260509083536 70 118 3.0 6.0 0.00 0.00 0.00 42 1019.9
20260509083037 70 112 1.0 2.0 0.00 0.01 0.00 44 1020.0
20260509082536 68 153 3.0 3.0 0.00 0.01 0.00 43 1020.0
20260509082035 69 112 3.0 3.0 0.00 0.01 0.00 42 1020.1
20260509081537 69 135 2.0 3.0 0.00 0.01 0.00 43 1020.1
20260509081036 68 147 1.0 1.0 0.00 0.01 0.00 46 1020.2
20260509080536 68 146 2.0 5.0 0.00 0.02 0.00 44 1020.3
20260509080035 71 135 2.0 3.0 0.00 0.02 0.00 42 1020.4
20260509075536 71 140 1.0 2.0 0.00 0.02 0.00 44 1020.5
20260509075036 69 146 1.0 2.0 0.00 0.02 0.00 45 1020.4
20260509074535 69 140 1.0 3.0 0.00 0.02 0.00 46 1020.5
20260509074037 68 138 1.0 3.0 0.00 0.02 0.00 45 1020.5
20260509073535 68 158 0.0 1.0 0.00 0.02 0.00 50 1020.5
20260509073037 67 131 2.0 3.0 0.00 0.02 0.00 51 1020.5
20260509072535 65 149 1.0 2.0 0.00 0.02 0.00 51 1020.6
20260509072037 66 144 2.0 3.0 0.00 0.02 0.00 50 1020.4
20260509071537 67 158 2.0 3.0 0.00 0.02 0.00 50 1020.4
20260509071036 68 135 1.0 2.0 0.00 0.02 0.00 51 1020.3
20260509070536 67 136 1.0 2.0 0.00 0.02 0.00 51 1020.3
20260509070035 66 158 0.0 1.0 0.00 0.02 0.00 52 1020.3
20260509065536 65 135 1.0 2.0 0.00 0.02 0.00 53 1020.3
20260509065036 64 115 2.0 3.0 0.00 0.02 0.00 53 1020.5
20260509064535 65 126 2.0 3.0 0.00 0.02 0.00 53 1020.5
20260509064037 66 158 1.0 3.0 0.00 0.02 0.00 50 1020.6
20260509063536 68 118 0.0 3.0 0.00 0.02 0.00 51 1020.6
20260509063036 68 147 1.0 1.0 0.00 0.02 0.00 51 1020.7
20260509062536 68 135 1.0 2.0 0.00 0.02 0.00 50 1020.6
20260509062035 67 135 0.0 1.0 0.00 0.04 0.00 51 1020.6
20260509061537 65 135 0.0 1.0 0.00 0.04 0.00 57 1020.7
20260509060808 63 135 1.0 2.0 0.00 0.05 0.00 58 1020.7
20260509060309 58 135 1.0 2.0 0.00 0.05 0.00 65 1020.7
20260509055809 58 135 1.0 1.0 0.00 0.05 0.00 67 1020.7
20260509055308 56 135 3.0 5.0 0.00 0.05 0.00 78 1020.7
20260509054810 53 146 1.0 2.0 0.00 0.05 0.00 82 1020.7
20260509054309 52 135 0.0 0.0 0.00 0.05 0.00 82 1020.7
20260509053809 51 158 2.0 3.0 0.00 0.05 0.00 82 1020.7
20260509053308 51 135 2.0 3.0 0.00 0.05 0.00 81 1020.6
20260509052809 51 147 3.0 3.0 0.00 0.05 0.00 80 1020.6
20260509052309 51 135 3.0 5.0 0.00 0.05 0.00 80 1020.6
20260509051809 51 135 3.0 3.0 0.00 0.05 0.00 80 1020.6
20260509051310 51 149 1.0 2.0 0.00 0.05 0.00 80 1020.5
20260509050809 50 158 0.0 3.0 0.00 0.05 0.00 81 1020.5
20260509050308 50 135 0.0 1.0 0.00 0.05 0.00 80 1020.6
20260509045808 50 135 1.0 1.0 0.00 0.05 0.00 80 1020.5
20260509045042 50 155 1.0 2.0 0.00 0.05 0.00 80 1020.4
20260509044542 50 148 2.0 3.0 0.00 0.05 0.00 79 1020.4
20260509044041 50 145 3.0 5.0 0.00 0.05 0.00 79 1020.4
20260509043543 50 155 0.0 3.0 0.00 0.05 0.00 79 1020.3
20260509043042 50 135 1.0 3.0 0.00 0.05 0.00 79 1020.4
20260509042541 50 135 2.0 3.0 0.00 0.05 0.00 79 1020.4
20260509042041 50 158 0.0 0.0 0.00 0.05 0.00 78 1020.4
20260509041542 50 158 3.0 5.0 0.00 0.05 0.00 77 1020.4